Regional Weather Roundup
Issued by NWS

Home | Current Version | Previous Version | Graphics & Text | Print | Product List | Glossary On
Versions: 1 2 3 4 5 6 7 8 9 10 11 12 13 14 15 16 17 18 19 20 21 22 23 24 25 26 27 28 29 30 31 32 33 34 35 36 37 38 39 40 41 42 43 44 45 46 47 48 49 50
572
ASUS44 KLIX 310205
RWRLA
LOUISIANA WEATHER ROUNDUP
NATIONAL WEATHER SERVICE NEW ORLEANS LA
900 PM CDT WED JUL 30 2014

NOTE: "FAIR" INDICATES FEW OR NO CLOUDS BELOW 12,000 FEET WITH NO
      SIGNIFICANT WEATHER AND/OR OBSTRUCTIONS TO VISIBILITY.
      SKY/WX - SKY CONDITION AND SIGNIFICANT WEATHER.
      TMP - AIR TEMPERATURE.    DP   - DEWPOINT TEMPERATURE.
      RH  - RELATIVE HUMIDITY.  PRES - PRESSURE.
      HX  - HEAT INDEX.         WCI  - WIND CHILL INDEX.

*  THESE STATIONS ARE NOT NWS OR FAA STATIONS AND ARE NOT UNDER
   NWS QUALITY CONTROL.

LAZ040-048-061>063-065-066-069-310300-
SOUTHEAST LOUISIANA

CITY           SKY/WX    TMP DP  RH WIND       PRES   REMARKS
N.O. AUDUBON     N/A     82  61  49 MISG        N/A
N.O. INTL ARPT PTCLDY    80  61  52 NE9       30.01S
N.O. LAKEFRONT CLEAR     83  62  49 NE13      30.02R
N.O. DOWNTOWN* FAIR      82  59  44 N5        30.02R
SLIDELL        CLEAR     73  66  78 CALM      30.01S
BATON ROUGE    CLEAR     76  65  68 NE5       30.01S
BOOTHVILLE     CLEAR     79  65  62 CALM      30.02R
BELLE CHASSE   PTCLDY    72  66  81 NE5       30.01R
BOGALUSA*      FAIR      72  67  82 N3        30.03S
GALLIANO*      NOT AVBL
NEW ROADS*     FAIR      74  69  84 N3        30.02R
GONZALES*      FAIR      74  70  86 CALM      30.01R
HAMMOND*       CLEAR     73  63  68 CALM      30.04R
HOUMA*         CLEAR     77  65  67 CALM      30.01R
PORT FOURCHON* MOCLDY    82  70  65 E5        30.03R

$$

LAZ041-044-053-054-310300-
SOUTHWEST LOUISIANA

CITY           SKY/WX    TMP DP  RH WIND       PRES   REMARKS
LAKE CHARLES   CLEAR     81  69  67 E6        29.99R
LAFAYETTE      CLEAR     78  68  71 CALM      30.01R
PATTERSON      CLEAR     77  68  73 N3        30.05R
SALT POINT       N/A     81  69  67 CALM      30.00R
NEW IBERIA     CLEAR     79  66  64 NE5       30.02R
CHENAULT AIRPK CLEAR     81  66  61 NE3       30.01R

$$

LAZ027-028-310300-
CENTRAL LOUISIANA

CITY           SKY/WX    TMP DP  RH WIND       PRES   REMARKS
FORT POLK      CLEAR     79  63  57 E5        30.01S
ALEXANDRIA INT CLEAR     79  66  64 E3        30.00S
ALEXANDRIA     CLEAR     74  69  85 CALM      30.02S

$$

LAZ001-002-310300-
NORTHWEST LOUISIANA

CITY           SKY/WX    TMP DP  RH WIND       PRES   REMARKS
SHREVEPORT     MOCLDY    79  66  64 E10       30.00S
BARKSDALE AFB  CLOUDY    77  64  64 E9        30.00F
DTN SHREVEPORT CLOUDY    77  65  66 E14       30.00F

$$

LAZ014-016-310300-
NORTHEAST LOUISIANA

CITY           SKY/WX    TMP DP  RH WIND       PRES   REMARKS
MONROE         CLOUDY    76  64  66 NE7       30.05S
TALLULAH       CLOUDY    77  64  64 NE7       30.04S

$$




USA.gov is the U.S. government's official web portal to all federal, state and local government web resources and services.